星链-35771(STARLINK-35771)

导读

STARLINK-35771是美国于2025年12月17日发射的星链系列卫星,属于SpaceX打造的星链星座组网卫星。星链项目旨在构建全球卫星互联网星座,为全球偏远地区、海洋等地面网络覆盖盲区提供低成本宽带互联网接入服务,该卫星入轨后将进一步扩充星链星座规模,提升全球网络服务覆盖能力与稳定性。

基本信息
目录编号:
67171
目录名称:
STARLINK-35771
国际标识:
2025-303J
轨道中心:
EARTH
卫星名称:
星链-35771
卫星全名:
星链-35771(STARLINK-35771)
卫星状态:
在轨 (已飞行178 天)
发射日期:
2025-12-17 UTC
国别 :
美国 (US)
星等 :
--
轨道信息
数据来源 国际轨道数据 AOE轨道数据
星历时间 2026-06-11T23:58:48+0800
1天前
查看轨道信息
2026-06-12T00:00:00+0800
1天前
查看轨道信息
半长轴 6861.084km 6861.059km
偏心率 0.0002992 0.0001506
轨道倾角 43.003° 43.002°
近地点辐角 266.402° 250.811°
升交点赤经 140.331° 140.326°
平近点角 93.648° 113.839°
近地点 480.894km 481.888km
远地点 485km 483.956km
周期 94.265分钟 94.264分钟
每日圈数 15.276143 15.276227
详细信息
固有亮度:
5
最大亮度:
2.5
卫星平台:
Starlink V1.0
覆盖范围:
全球
运营商:
太空探索技术公司
运营商所在国:
美国
制造商(研发单位):
太空探索技术公司
制造商所在国:
美国
使用方式:
暂无
卫星简介
Starlink 计划是 SpaceX 推出的全球卫星互联网项目,通过发射低轨道卫星,为全球尤其是偏远地区提供高速、低延迟的互联网服务。自 2019 年起,Starlink 已部署数千颗卫星,旨在缩小全球数字鸿沟,推动互联网普及。该项目还为军事、航空等行业提供通信支持,带来广泛经济效益。
2D轨道图
3D轨道图
轨道高度分析图
轨道倾角分析图
轨道综合分析图
查看轨道综合分析图